User: anonymous
Location: Bethera
(33.2010°N, 79.7880°W)
Time: 15:36:03
(UTC-04:00)
Language:

Cosmos 1833 Rocket - Orbit

View from above orbital plane
View from above orbital plane
View from above satellite
View from above satellite

Ground track
Ground track

The orbit data is extracted from the following two-line orbital elements,

1 17590U 87027B   14260.09751441 -.00000088  00000-0 -19882-4 0  7729
2 17590 071.0020 104.2148 0004645 007.1518 352.9671 14.16652353421911
Epoch (UTC): 17 September 2014 02:20:25
Eccentricity: 0.0004645
inclination: 71.0020°
perigee height: 833 km
apogee height: 840 km
right ascension of ascending node: 104.2148°
argument of perigee: 7.1518°
revolutions per day: 14.16652353
mean anomaly at epoch: 352.9671°
orbit number at epoch: 42191

The dashed part of the orbit path shows where the satellite is in the earth's shadow,  

DLR